This is the latest recevied weather packets stored in our database for station/object HI8S-13. If no packets are shown the sender has not sent any weather packets the latest 10 day(s).
| Time | Temp. | Humidity | Pressure | Rain* | Wind** | Luminosity | Snow |
|---|---|---|---|---|---|---|---|
| 1777835014 | 32.22° C | 57% | 1015.1 hPa | 0 mm | - | - | - |
| 1777833812 | 31.11° C | 64% | 1015.2 hPa | 0 mm | - | - | - |
| 1777833211 | 30.56° C | 63% | 1015.2 hPa | 0 mm | - | - | - |
| 1777832907 | 31.11° C | 65% | 1015.2 hPa | 0 mm | - | - | - |
| 1777832307 | 30.56° C | 65% | 1015.4 hPa | 0 mm | - | - | - |
| 1777831406 | 30.56° C | 65% | 1015.6 hPa | 0 mm | - | - | - |
| 1777830208 | 30.56° C | 67% | 1015.9 hPa | 0 mm | - | - | - |
| 1777829610 | 30.56° C | 65% | 1016.1 hPa | 0 mm | - | - | - |
| 1777829315 | 30.56° C | 66% | 1016.1 hPa | 0 mm | - | - | - |
| 1777829008 | 30.56° C | 67% | 1016.2 hPa | 0 mm | - | - | - |
| 1777828408 | 30° C | 66% | 1016.4 hPa | 0 mm | - | - | - |
| 1777827807 | 30° C | 67% | 1016.4 hPa | 0 mm | - | - | - |
| 1777825707 | 30° C | 63% | 1016.8 hPa | 0 mm | - | - | - |
| 1777823910 | 30° C | 64% | 1016.9 hPa | 0 mm | - | - | - |
| 1777822711 | 30° C | 66% | 1017.2 hPa | 0 mm | - | - | - |
| 1777822106 | 30° C | 67% | 1017.4 hPa | 0 mm | - | - | - |
| 1777819406 | 29.44° C | 68% | 1017.6 hPa | 0 mm | - | - | - |
| 1777817912 | 29.44° C | 69% | 1017.5 hPa | 0 mm | - | - | - |
| 1777816707 | 28.89° C | 71% | 1017.5 hPa | 0 mm | - | - | - |
| 1777814910 | 28.33° C | 73% | 1017.4 hPa | 0 mm | - | - | - |
| 1777814317 | 28.89° C | 72% | 1017.3 hPa | 0 mm | - | - | - |
| 1777811918 | 28.33° C | 78% | 1017.1 hPa | 0 mm | - | - | - |
| 1777810714 | 27.22° C | 81% | 1016.9 hPa | 0 mm | - | - | - |
| 1777808906 | 26.11° C | 84% | 1016.9 hPa | 0 mm | - | - | - |
| 1777807709 | 25.56° C | 86% | 1016.8 hPa | 0 mm | - | - | - |
* Rain latest hour (hover to see other rain measurements)
** Current wind speed in m/s (hover to see current wind gust speed)